This is the latest recevied weather packets stored in our database for station/object SLG. If no packets are shown the sender has not sent any weather packets the latest 10 day(s).
| Time | Temp. | Humidity | Pressure | Rain* | Wind** | Luminosity | Snow |
|---|---|---|---|---|---|---|---|
| 1778149936 | 12.78° C | 74% | 1012.7 hPa | 0.51 mm | - | - | - |
| 1778148132 | 12.22° C | 78% | 1012.5 hPa | 0.51 mm | - | - | - |
| 1778146331 | 11.67° C | 83% | 1012.3 hPa | 0.51 mm | - | - | - |
| 1778144531 | 11.11° C | 88% | 1012.2 hPa | 0.51 mm | - | - | - |
| 1778142732 | 10.56° C | 91% | 1012 hPa | 0.51 mm | - | - | - |
| 1778140931 | 9.44° C | 92% | 1012.1 hPa | 0.51 mm | - | - | - |
| 1778139132 | 9.44° C | 92% | 1011.8 hPa | 0.51 mm | - | - | - |
| 1778137332 | 8.89° C | 92% | 1011.4 hPa | 0.51 mm | - | - | - |
| 1778135532 | 8.33° C | 91% | 1011.3 hPa | 0.51 mm | - | - | - |
| 1778133731 | 8.33° C | 91% | 1011.1 hPa | 0 mm | - | - | - |
| 1778131931 | 8.33° C | 91% | 1010.9 hPa | 0 mm | - | - | - |
| 1778130133 | 8.33° C | 91% | 1010.5 hPa | 0 mm | - | - | - |
| 1778128331 | 7.78° C | 91% | 1010.1 hPa | 0 mm | - | - | - |
| 1778126536 | 7.78° C | 91% | 1009.8 hPa | 0 mm | - | - | - |
| 1778124731 | 7.78° C | 91% | 1009.7 hPa | 0 mm | - | - | - |
| 1778122931 | 7.78° C | 92% | 1009.5 hPa | 0 mm | - | - | - |
| 1778121132 | 7.22° C | 91% | 1009.3 hPa | 0 mm | - | - | - |
| 1778119331 | 7.22° C | 91% | 1009.3 hPa | 0 mm | - | - | - |
| 1778117533 | 7.22° C | 91% | 1009.2 hPa | 0 mm | - | - | - |
| 1778115731 | 7.22° C | 91% | 1009 hPa | 0 mm | - | - | - |
| 1778113929 | 7.22° C | 91% | 1008.8 hPa | 0 mm | - | - | - |
| 1778112129 | 7.78° C | 91% | 1008.8 hPa | 0 mm | - | - | - |
| 1778110329 | 7.78° C | 91% | 1008.8 hPa | 0 mm | - | - | - |
| 1778108530 | 7.78° C | 91% | 1008.6 hPa | 0 mm | - | - | - |
| 1778106729 | 7.78° C | 91% | 1008.5 hPa | 0 mm | - | - | - |
* Rain since midnight (hover to see other rain measurements)
** Current wind speed in m/s (hover to see current wind gust speed)